{"data":{"norad_id":56328,"epoch":"2026-05-24T23:11:37.999392Z","epoch_age_seconds":84842,"freshness":"FRESH","line1":"1 56328U 23058M   26144.96641203 -.00000013  00000+0  31583-5 0  9999","line2":"2 56328  97.4464 146.0289 0002062  77.0404 283.1054 15.05653232169676","mean_motion":15.05653232,"eccentricity":0.0002062,"inclination_deg":97.4464,"raan_deg":146.0289,"arg_perigee_deg":77.0404,"mean_anomaly_deg":283.1054,"bstar":3.1583e-6,"rev_number":16967,"period_min":95.639551617553,"perigee_km":548.07276121214,"apogee_km":550.9297192224,"semimajor_km":6927.6382402173,"source":"CELESTRAK","updated_at":"2026-05-25T13:38:18.002002Z"}}